Location: Caltech
(34.1382°N, 118.1253°W)
Time: 07:28:40
(UTC-07:00)

ITAMSAT 1 - Visible Passes

Search period start: 23 April 2014 00:00
Search period end: 03 May 2014 00:00
Orbit: 784 x 799 km, 98.7° (Epoch: 22 April)

Date Brightness Start Highest point End Pass type
(mag) Time Alt. Az. Time Alt. Az. Time Alt. Az.
23 Apr 8.9 02:55:24 10° NNE 02:58:35 38° NNE 02:58:35 38° NNE visible
23 Apr 9.7 04:37:33 10° NW 04:39:21 12° WNW 04:39:21 12° WNW visible
24 Apr 9.6 02:26:44 10° NNE 02:29:17 25° NE 02:29:17 25° NE visible
24 Apr 9.1 04:06:44 10° NNW 04:10:03 22° NW 04:10:03 22° NW visible
25 Apr 10.2 01:58:45 10° NE 01:59:58 14° ENE 01:59:58 14° ENE visible
25 Apr 8.5 03:37:00 10° N 03:40:44 38° NW 03:40:44 38° NW visible
26 Apr 8.4 03:07:44 10° NNE 03:11:25 48° N 03:11:25 48° N visible
27 Apr 9.1 02:38:53 10° NNE 02:42:06 34° NE 02:42:06 34° NE visible
27 Apr 9.3 04:19:36 10° NNW 04:22:52 18° WNW 04:22:52 18° WNW visible
28 Apr 9.8 02:10:32 10° NE 02:12:47 20° ENE 02:12:47 20° ENE visible
28 Apr 8.6 03:49:35 10° N 03:53:32 32° NW 03:53:32 32° NW visible
29 Apr 8.1 03:20:08 10° N 03:24:13 52° NNW 03:24:13 52° NNW visible
30 Apr 8.5 02:51:06 10° NNE 02:54:54 46° NE 02:54:54 46° NE visible
30 Apr 9.5 04:32:45 10° NW 04:35:10 13° WNW 04:35:40 13° WNW visible
01 May 9.4 02:22:30 10° NE 02:25:34 27° ENE 02:25:34 27° ENE visible
01 May 8.9 04:02:15 10° NNW 04:06:20 25° WNW 04:06:20 25° WNW visible
02 May 10.1 01:54:42 10° NE 01:56:15 14° ENE 01:56:15 14° ENE visible
02 May 8.1 03:32:36 10° N 03:37:00 46° NW 03:37:00 46° NW visible
